Location: Newark
(48.4281°N, 5.9947°E)
Time: 02:48:36
(UTC+00:00)

Envisat - Visible Passes

Search period start: 19 October 2019 00:00
Search period end: 29 October 2019 00:00
Orbit: 764 x 766 km, 98.1° (Epoch: 18 October)

Date Brightness Start Highest point End Pass type
(mag) Time Alt. Az. Time Alt. Az. Time Alt. Az.
19 Oct 6.3 05:13:14 10° NE 05:16:01 15° E 05:18:47 10° ESE visible
19 Oct 4.2 18:09:10 10° S 18:14:00 44° W 18:18:53 10° NNW visible
20 Oct 3.0 17:32:03 10° SSE 17:37:09 90° WNW 17:42:16 10° NNW visible
20 Oct 6.1 19:14:31 10° WSW 19:16:54 13° W 19:19:18 10° WNW visible
21 Oct 5.2 18:35:25 10° SSW 18:39:42 27° W 18:44:01 10° NW visible
22 Oct 6.5 05:02:53 10° ENE 05:04:36 12° E 05:06:18 10° ESE visible
22 Oct 3.8 17:57:43 10° S 18:02:41 55° W 18:07:42 10° NNW visible
23 Oct 2.9 17:20:50 10° SSE 17:25:53 74° ENE 17:30:59 10° N visible
23 Oct 5.9 19:02:18 10° SW 19:05:29 17° W 19:08:41 10° NW visible
24 Oct 6.0 05:26:48 10° NE 05:30:27 20° E 05:34:06 10° SE visible
24 Oct 4.8 18:23:46 10° SSW 18:28:20 33° W 18:32:56 10° NNW visible
25 Oct 3.4 17:46:20 10° S 17:51:24 68° WSW 17:56:29 10° NNW visible
26 Oct 3.0 17:09:39 10° SSE 17:14:39 60° ENE 17:19:40 10° N visible
26 Oct 5.6 18:50:21 10° SW 18:54:04 20° W 18:57:50 10° NW visible
27 Oct 6.1 05:15:59 10° NE 05:19:03 16° E 05:22:07 10° SE visible
27 Oct 4.4 18:12:13 10° SSW 18:16:59 41° W 18:21:49 10° NNW visible
28 Oct 3.1 17:35:02 10° SSE 17:40:07 84° WSW 17:45:14 10° NNW visible
28 Oct 6.2 19:17:59 10° WSW 19:19:56 12° W 19:21:53 10° WNW visible
